Home > Weather > Karachi > Past weeks

Flag for Pakistan Weather for the Past 2 Weeks in Karachi, Sindh, Pakistan

Now
90 °F

Clear.


Feels Like: 95 °F
Forecast: 80 / 93 °F
Wind: 18 mph from Southwest

Location: Karachi Airport

Current Time: May 3, 2016 at 5:42:28 PM

Latest Report: May 3, 2016 at 3:55 PM


Visibility: 4 mi

Pressure: 29.68 "Hg

Humidity: 52%

Dew Point: 70 °F

Location of KarachiLocation

Historic Weather in Karachi — Graph

°F

Karachi Temperature Yesterday

Maximum temperature yesterday: 99 °F (at 11:55 AM)
Minimum temperature yesterday: 82 °F (at 12:55 AM)
Average temperature yesterday: 88 °F

High & Low Weather Summary for the Past Weeks

 TemperatureHumidityPressure
High102 °F (Apr 23, 12:55 PM)89% (Apr 29, 3:25 AM)29.92 "Hg (Apr 29, 3:25 AM)
Low75 °F (Apr 19, 3:55 AM)7% (Apr 23, 12:55 PM)29.59 "Hg (Apr 24, 3:25 PM)
Average85 °F56%29.74 "Hg
* Reported Apr 18 3:25 PM — May 3 3:55 PM, Karachi, Weather by CustomWeather, © 2016

Note: Actual official high and low records may vary slightly from our data, if they occured in-between our weather recording intervals... More about our weather records

Advertising

Karachi Weather History for the Previous 24 Hours

Scroll right to see more
 ConditionsComfort  
Time TempWeatherWind HumidityBarometerVisibility
3:55 PM
Tue, May 3
90 °FClear.18 mph52%29.68 "Hg4 mi
2:55 PM91 °FClear.16 mph44%29.71 "Hg4 mi
2:25 PM93 °FClear.16 mph41%29.71 "Hg4 mi
1:55 PM93 °FClear.15 mph44%29.71 "Hg4 mi
12:55 PM93 °FClear.16 mph44%29.74 "Hg4 mi
12:25 PM91 °FClear.12 mph46%29.74 "Hg4 mi
10:55 AM91 °FClear.9 mph46%29.74 "Hg4 mi
10:25 AM91 °FClear.7 mph41%29.74 "Hg4 mi
9:55 AM90 °FClear.9 mph46%29.77 "Hg4 mi
9:25 AM90 °FClear.10 mph49%29.74 "Hg4 mi
8:55 AM86 °FClear.9 mph62%29.74 "Hg4 mi
8:25 AM84 °FClear.16 mph66%29.74 "Hg4 mi
7:55 AM84 °FClear.10 mph66%29.74 "Hg4 mi
7:25 AM82 °FClear.12 mph70%29.71 "Hg4 mi
6:55 AM81 °FClear.7 mph74%29.71 "Hg4 mi
5:55 AM79 °FClear.9 mph79%29.71 "Hg4 mi
5:25 AM81 °FClear.9 mph74%29.71 "Hg4 mi
4:55 AM81 °FClear.9 mph74%29.68 "Hg4 mi
4:25 AM81 °FClear.12 mph74%29.68 "Hg4 mi
3:55 AM81 °FClear.12 mph74%29.68 "Hg4 mi
2:55 AM81 °FClear.16 mph70%29.68 "Hg4 mi
2:25 AM81 °FClear.10 mph74%29.68 "Hg4 mi
1:55 AM81 °FClear.10 mph74%29.68 "Hg4 mi
1:25 AM82 °FClear.7 mph70%29.68 "Hg4 mi
12:55 AM82 °FClear.9 mph70%29.71 "Hg4 mi
12:25 AM82 °FClear.9 mph70%29.71 "Hg4 mi
11:55 PM
Mon, May 2
82 °FClear.9 mph66%29.71 "Hg4 mi
11:25 PM82 °FClear.9 mph66%29.74 "Hg4 mi
10:25 PM84 °FClear.10 mph66%29.71 "Hg4 mi
9:55 PM84 °FClear.12 mph66%29.71 "Hg4 mi
9:25 PM84 °FClear.9 mph66%29.71 "Hg4 mi
8:55 PM84 °FClear.15 mph66%29.68 "Hg4 mi
8:25 PM84 °FClear.14 mph66%29.68 "Hg4 mi
7:25 PM86 °FClear.16 mph59%29.68 "Hg4 mi
6:55 PM86 °FClear.15 mph62%29.68 "Hg4 mi
6:25 PM88 °FClear.14 mph55%29.65 "Hg4 mi
5:55 PM90 °FClear.10 mph52%29.65 "Hg4 mi
5:25 PM90 °FClear.10 mph52%29.65 "Hg4 mi
Weather by CustomWeather, © 2016

See weather overviewHow to use our weather pages